Falls City, NE

11:50 PM CST on February 24, 2018 (GMT -0600)
Brenner

Weather History for KFNB - April, 2013

Change the Weather History Date:

Monday, April 22, 2013

  Actual Average Record
Temperature  
Mean Temperature 52 °F -  
Max Temperature 66 °F 65 °F 92 °F (1989)
Min Temperature 37 °F 43 °F 26 °F (1986)
Degree Days  
Heating Degree Days 14    
Growing Degree Days 2 (Base 50)    
Moisture  
Dew Point 44 °F    
Average Humidity 80    
Maximum Humidity 100    
Minimum Humidity 43    
Precipitation  
Precipitation 0.47 in - - ()
Sea Level Pressure  
Sea Level Pressure 30.03 in    
Wind  
Wind Speed 8 mph (WNW)    
Max Wind Speed 20 mph    
Max Gust Speed 28 mph    
Visibility 8 miles    
Events Rain    
Averages and records for this station are not official NWS values.
T = Trace of Precipitation, MM = Missing Value Source: NWS Daily Summary

Daily Weather History Graph

Daily Weather History Graph

Search for Another Location

Airport or City:

Trip Planner

Search our weather history database for the weather conditions in past years. The results will help you decide how hot, cold, wet, or windy it might be!

Date:

Astronomy

Apr. 22, 2013 Rise Set
Actual Time 6:33 AM CDT 8:08 PM CDT
Civil Twilight 6:05 AM CDT 8:37 PM CDT
Nautical Twilight 5:30 AM CDT 9:11 PM CDT
Astronomical Twilight 4:54 AM CDT 9:48 PM CDT
Moon 4:58 PM CDT (4/22) 4:29 AM CDT (4/22)
Length of Visible Light 14h 31m
Length of Day
13h 34m
Waxing Gibbous, 88% of the Moon is Illuminated
Apr 22
Waxing Gibbous
Apr 25
Full
May 2
Last Quarter
May 9
New
May 17
First Quarter

Hourly Weather History & Observations

Time (CDT) Temp. Windchill Dew Point Humidity Pressure Visibility Wind Dir Wind Speed Gust Speed Precip Events Conditions
12:53 AM 53.1 °F - 42.1 °F 66% 30.09 in 10.0 mi Calm Calm - N/A   Partly Cloudy
1:53 AM 51.1 °F - 42.1 °F 71% 30.08 in 10.0 mi SE 3.5 mph - N/A   Mostly Cloudy
2:53 AM 52.0 °F - 43.0 °F 71% 30.07 in 10.0 mi NNW 8.1 mph - N/A   Overcast
3:53 AM 54.0 °F - 42.1 °F 64% 30.08 in 10.0 mi Calm Calm - N/A   Overcast
4:53 AM 53.1 °F - 42.1 °F 66% 30.06 in 10.0 mi SSE 6.9 mph - N/A   Overcast
5:53 AM 52.0 °F - 41.0 °F 66% 30.06 in 10.0 mi South 6.9 mph - 0.00 in   Overcast
6:53 AM 48.0 °F - 41.0 °F 77% 30.06 in 10.0 mi SSE 4.6 mph - N/A   Clear
7:53 AM 51.1 °F - 39.9 °F 66% 30.06 in 10.0 mi South 8.1 mph - N/A   Clear
8:53 AM 52.0 °F - 41.0 °F 66% 30.06 in 10.0 mi South 10.4 mph 18.4 mph N/A   Scattered Clouds
9:53 AM 54.0 °F - 42.1 °F 64% 30.05 in 10.0 mi South 9.2 mph - N/A   Overcast
10:53 AM 57.0 °F - 42.1 °F 57% 30.03 in 10.0 mi South 13.8 mph - N/A   Overcast
11:53 AM 61.0 °F - 42.1 °F 50% 30.00 in 10.0 mi South 17.3 mph 24.2 mph N/A   Clear
12:53 PM 66.0 °F - 43.0 °F 43% 29.97 in 10.0 mi South 16.1 mph 26.5 mph N/A   Partly Cloudy
1:53 PM 62.1 °F - 42.1 °F 48% 29.94 in 10.0 mi South 15.0 mph - N/A   Overcast
2:53 PM 59.0 °F - 46.0 °F 62% 29.94 in 10.0 mi South 10.4 mph - 0.00 in Rain Light Rain
3:53 PM 57.9 °F - 45.0 °F 62% 29.94 in 10.0 mi SSE 9.2 mph - 0.00 in Rain Light Rain
4:53 PM 53.1 °F - 50.0 °F 89% 29.99 in 3.0 mi WNW 12.7 mph - 0.13 in Rain Rain
5:06 PM 53.6 °F - 51.8 °F 94% 29.97 in 2.5 mi WNW 10.4 mph - 0.05 in Rain Rain
5:13 PM 51.8 °F - 51.8 °F 100% 29.98 in 4.0 mi WNW 9.2 mph - 0.06 in Rain Rain
5:53 PM 52.0 °F - 52.0 °F 100% 29.99 in 4.0 mi NNW 9.2 mph - 0.13 in Rain Rain
6:03 PM 51.8 °F - 51.8 °F 100% 29.99 in 2.5 mi NW 9.2 mph - 0.03 in Rain Rain
6:19 PM 51.8 °F - 51.8 °F 100% 30.00 in 2.5 mi NW 8.1 mph - 0.08 in Rain Rain
6:32 PM 51.8 °F - 51.8 °F 100% 29.99 in 2.5 mi NNW 5.8 mph - 0.12 in Rain Rain
6:40 PM 51.8 °F - 51.8 °F 100% 29.99 in 4.0 mi NNW 9.2 mph - 0.14 in Rain Rain
6:53 PM 50.0 °F - 50.0 °F 100% 30.01 in 5.0 mi NNW 17.3 mph 23.0 mph 0.16 in Rain Light Rain
7:53 PM 42.1 °F 34.5 °F 41.0 °F 96% 30.03 in 10.0 mi NNW 15.0 mph 25.3 mph 0.02 in Rain Light Rain
8:53 PM 39.9 °F 31.4 °F 39.0 °F 97% 30.07 in 7.0 mi North 16.1 mph 25.3 mph 0.01 in Rain Light Rain
9:10 PM 39.2 °F 31.6 °F 39.2 °F 100% 30.07 in 9.0 mi NNW 12.7 mph 25.3 mph 0.01 in Rain Light Rain
9:21 PM 39.2 °F 29.8 °F 39.2 °F 100% 30.08 in 9.0 mi NNW 18.4 mph 25.3 mph 0.01 in Rain Light Rain
9:53 PM 37.9 °F 28.9 °F 37.0 °F 97% 30.13 in 10.0 mi NNW 16.1 mph 26.5 mph 0.02 in Rain Light Rain
10:53 PM 37.0 °F 28.1 °F 35.1 °F 93% 30.09 in 10.0 mi North 15.0 mph 21.9 mph 0.00 in   Overcast
11:34 PM 37.4 °F 27.2 °F 35.6 °F 93% 30.11 in 10.0 mi NNW 19.6 mph 27.6 mph N/A   Overcast
11:53 PM 37.0 °F 28.1 °F 34.0 °F 89% 30.14 in 10.0 mi NNW 15.0 mph 26.5 mph N/A   Overcast